Location: Long Island Community Building
(39.9491°N, 99.5338°W)
Time: 19:45:53
(UTC+00:00)

Cosmos 614 Rocket - Pass Details

Date: 06 December 2019
Orbit: 733 x 763 km, 74.1° (Epoch: 18 January)

Event Time Altitude Azimuth Distance (km) Brightness Sun altitude
Exits shadow 12:25:23 17° 322° (NW) 1,803 5.4 -14.9°
Maximum altitude 12:28:56 43° 257° (WSW) 1,028 4.3 -14.2°
Drops below altitude 10° 12:33:43 10° 187° (S) 2,244 6.6 -13.4°
Sets 12:36:09 0° 180° (S) 3,168 7.4 -12.9°
